Location: Br�znic
(45.9167°N, 22.6500°E)
Time: 16:25:25
(UTC+00:00)

Cosmos 2084 Rocket - Pass Details

Date: 03 March 2021
Orbit: 528 x 652 km, 62.8° (Epoch: 11 April)

Event Time Altitude Azimuth Distance (km) Brightness Sun altitude
Rises 16:46:20 0° 323° (NW) 2,795 7.4 -5.6°
Reaches altitude 10° 16:48:37 10° 330° (NNW) 1,914 6.5 -6.0°
Maximum altitude 16:52:49 47° 45° (NE) 797 3.8 -6.7°
Drops below altitude 10° 16:57:09 10° 120° (ESE) 1,980 5.6 -7.5°
Enters shadow 16:58:27 - 124° (ESE) 2,478 6.2 -7.7°
